GW2975 Weather Reports


time (UTC)temp
C
wind
direction
speed
KPH
gust
KPH
rain 1hr
cm
rain 24hr
cm
rain mn
cm
humidity
%
barometer
mb
20260507004542 15 152 8.0 17.7 0.00 0.00 0.00 82 1013.1
20260507004038 15 153 8.0 16.1 0.00 0.00 0.00 82 1013.8
20260507003542 15 117 6.4 16.1 0.00 0.00 0.00 83 1013.3
20260507003047 15 182 6.4 17.7 0.00 0.00 0.00 82 1013.2
20260507002541 15 158 8.0 20.9 0.00 0.00 0.00 82 1013.0
20260507002038 15 190 6.4 20.9 0.00 0.00 0.00 82 1012.8
20260507001549 16 168 8.0 16.1 0.00 0.00 0.00 82 1012.9
20260507001037 16 174 8.0 17.7 0.00 0.00 0.00 82 1013.0
20260507000540 16 185 4.8 19.3 0.00 0.00 0.00 83 1012.7
20260507000053 15 147 9.7 24.1 0.00 0.00 0.00 82 1013.0
20260506235537 15 148 9.7 24.1 0.00 0.00 0.00 82 1012.9
20260506235040 15 128 8.0 27.4 0.00 0.00 0.00 82 1012.7
20260506234553 15 143 11.3 27.4 0.00 0.00 0.00 82 1012.8
20260506234041 16 123 9.7 27.4 0.00 0.00 0.00 82 1012.7
20260506233538 16 134 9.7 25.7 0.00 0.00 0.00 82 1012.6
20260506233046 16 171 12.9 25.7 0.00 0.00 0.00 82 1012.7
20260506232537 16 163 12.9 22.5 0.00 0.00 0.00 82 1012.8
20260506232038 16 161 9.7 30.6 0.00 0.00 0.00 82 1012.6
20260506231545 16 173 9.7 30.6 0.00 0.00 0.00 82 1012.4
20260506231038 16 219 6.4 24.1 0.00 0.00 0.00 81 1012.4
20260506230535 16 153 8.0 19.3 0.00 0.00 0.00 81 1012.4
20260506230055 16 138 6.4 24.1 0.00 0.00 0.00 82 1012.3
20260506225535 16 143 9.7 24.1 0.00 0.00 0.00 82 1012.4
20260506225038 16 173 12.9 20.9 0.00 0.00 0.00 81 1012.5
20260506224601 16 151 9.7 22.5 0.00 0.00 0.00 82 1012.4
20260506224037 16 188 8.0 22.5 0.00 0.00 0.00 82 1012.6
20260506223537 16 159 9.7 22.5 0.00 0.00 0.00 83 1012.5
20260506223046 16 192 11.3 24.1 0.00 0.00 0.00 82 1012.4
20260506222538 16 180 12.9 24.1 0.00 0.00 0.00 82 1012.3
20260506222037 16 155 9.7 27.4 0.00 0.00 0.00 82 1012.4
20260506221547 16 134 11.3 27.4 0.00 0.00 0.00 82 1012.4
20260506221035 16 126 11.3 22.5 0.00 0.00 0.00 82 1012.3
20260506220537 16 145 11.3 22.5 0.00 0.00 0.00 81 1012.2
20260506220046 16 160 9.7 24.1 0.00 0.00 0.00 83 1012.3
20260506215536 16 143 14.5 25.7 0.00 0.00 0.00 83 1012.4
20260506215037 16 164 9.7 25.7 0.00 0.00 0.00 83 1012.4
20260506214604 16 188 12.9 25.7 0.00 0.00 0.00 82 1012.6
20260506214037 16 161 12.9 27.4 0.00 0.00 0.00 82 1012.6
20260506213538 16 192 12.9 27.4 0.00 0.00 0.00 82 1012.4
20260506213051 17 167 12.9 27.4 0.00 0.00 0.00 81 1012.4
20260506212537 17 142 11.3 27.4 0.00 0.00 0.00 81 1012.3
20260506212034 17 162 9.7 27.4 0.00 0.00 0.00 81 1012.3
20260506211548 17 139 9.7 25.7 0.00 0.00 0.00 82 1012.3
20260506211035 17 145 11.3 27.4 0.00 0.00 0.00 80 1012.3
20260506210535 17 154 12.9 29.0 0.00 0.00 0.00 79 1012.4
20260506210051 18 129 14.5 29.0 0.00 0.00 0.00 79 1012.4
20260506205537 18 109 12.9 27.4 0.00 0.00 0.00 80 1012.2
20260506205034 18 129 12.9 32.2 0.00 0.00 0.00 79 1012.4
20260506204546 19 112 16.1 32.2 0.00 0.00 0.00 78 1012.4
20260506204038 19 146 14.5 29.0 0.00 0.00 0.00 79 1012.4
20260506203535 19 163 14.5 29.0 0.00 0.00 0.00 78 1012.2
20260506203051 19 126 14.5 27.4 0.00 0.00 0.00 79 1012.3
20260506202538 19 129 17.7 27.4 0.00 0.00 0.00 79 1012.4
20260506202037 18 155 12.9 25.7 0.00 0.00 0.00 81 1012.3
20260506201546 18 171 12.9 25.7 0.00 0.00 0.00 80 1012.6
20260506201038 18 134 14.5 29.0 0.00 0.00 0.00 80 1012.5
20260506200539 18 117 12.9 32.2 0.00 0.00 0.00 80 1012.5
20260506200043 18 116 12.9 32.2 0.00 0.00 0.00 80 1012.6
20260506195535 18 175 16.1 32.2 0.00 0.00 0.00 80 1012.4
20260506195040 18 118 12.9 25.7 0.00 0.00 0.00 80 1012.4
20260506194556 19 181 14.5 25.7 0.00 0.00 0.00 80 1012.3
20260506194040 19 186 9.7 29.0 0.00 0.00 0.00 80 1012.3
20260506193537 19 133 12.9 29.0 0.00 0.00 0.00 80 1012.3
20260506193049 19 150 14.5 30.6 0.00 0.00 0.00 80 1012.2
20260506192538 19 165 14.5 30.6 0.00 0.00 0.00 80 1012.2
20260506192035 20 147 14.5 30.6 0.00 0.00 0.00 80 1012.3
20260506191551 20 130 12.9 30.6 0.00 0.00 0.00 80 1012.2
20260506191038 21 179 16.1 30.6 0.00 0.00 0.00 77 1012.3
20260506190538 22 148 12.9 27.4 0.00 0.00 0.00 78 1012.2
20260506190048 22 167 11.3 27.4 0.00 0.00 0.00 78 1012.1
20260506185538 23 150 11.3 25.7 0.00 0.00 0.00 76 1012.2
20260506185035 23 157 12.9 24.1 0.00 0.00 0.00 74 1012.3
20260506184551 25 170 3.2 11.3 0.00 0.00 0.00 76 1012.3
20260506184035 25 230 3.2 8.0 0.00 0.00 0.00 76 1012.3
20260506183535 25 216 3.2 9.7 0.00 0.00 0.00 76 1012.2
20260506183047 25 0 3.2 11.3 0.00 0.00 0.00 78 1012.1
20260506182535 25 239 4.8 14.5 0.00 0.00 0.00 76 1012.1
20260506182035 25 257 3.2 14.5 0.00 0.00 0.00 76 1012.1
20260506181548 25 286 3.2 12.9 0.00 0.00 0.00 75 1012.1
20260506181035 25 196 6.4 12.9 0.00 0.00 0.00 77 1012.0
20260506180535 25 245 3.2 11.3 0.00 0.00 0.00 76 1011.8
20260506180051 25 236 1.6 11.3 0.00 0.00 0.00 75 1012.0
20260506175537 25 166 4.8 12.9 0.00 0.00 0.00 76 1012.0
20260506175042 24 173 4.8 12.9 0.00 0.00 0.00 78 1012.0
20260506174544 24 217 4.8 14.5 0.00 0.00 0.00 76 1012.0
20260506174037 24 285 3.2 14.5 0.00 0.00 0.00 77 1011.9
20260506173539 24 307 3.2 14.5 0.00 0.00 0.00 76 1011.9
20260506173048 23 247 4.8 11.3 0.00 0.00 0.00 77 1011.9
20260506172535 23 230 6.4 11.3 0.00 0.00 0.00 77 1012.0
20260506172036 22 242 3.2 11.3 0.00 0.00 0.00 80 1012.0
20260506171553 22 246 3.2 11.3 0.00 0.00 0.00 81 1012.1
20260506171040 21 242 4.8 12.9 0.00 0.00 0.00 81 1012.1
20260506170540 21 261 6.4 14.5 0.00 0.00 0.00 80 1012.1
20260506170052 21 271 6.4 19.3 0.00 0.00 0.00 79 1012.2
20260506165539 21 171 6.4 19.3 0.00 0.00 0.00 80 1012.4
20260506165037 21 223 8.0 19.3 0.00 0.00 0.00 79 1012.4
20260506164552 21 196 4.8 16.1 0.00 0.00 0.00 81 1012.4
20260506164037 21 209 4.8 16.1 0.00 0.00 0.00 82 1012.3
20260506163537 20 224 8.0 24.1 0.00 0.00 0.00 83 1012.4
20260506163052 19 233 9.7 24.1 0.00 0.00 0.00 83 1012.4
20260506162537 19 215 11.3 24.1 0.00 0.00 0.00 83 1012.5
20260506162037 18 187 11.3 24.1 0.00 0.00 0.00 84 1012.7
20260506161553 18 205 12.9 29.0 0.00 0.00 0.00 84 1012.7
20260506161038 18 179 11.3 30.6 0.00 0.00 0.00 84 1012.6
20260506160537 18 181 12.9 35.4 0.00 0.00 0.00 84 1013.1
20260506160047 18 153 14.5 35.4 0.00 0.00 0.00 83 1013.2
20260506155537 20 119 22.5 35.4 0.00 0.00 0.00 79 1013.7
20260506155041 23 178 14.5 29.0 0.00 0.00 0.00 75 1013.8
20260506154601 24 139 1.6 6.4 0.00 0.00 0.00 83 1013.2
20260506154036 24 280 0.0 4.8 0.00 0.00 0.00 84 1012.4
20260506153534 24 244 0.0 4.8 0.00 0.00 0.00 83 1012.2
20260506153048 24 244 1.6 4.8 0.00 0.00 0.00 83 1012.4
20260506152535 24 250 0.0 3.2 0.00 0.00 0.00 83 1012.3
20260506152036 24 0 0.0 4.8 0.00 0.00 0.00 84 1012.0
20260506151558 24 193 0.0 4.8 0.00 0.00 0.00 83 1011.6
20260506151035 24 0 0.0 6.4 0.00 0.00 0.00 83 1011.6
20260506150535 23 0 0.0 6.4 0.00 0.00 0.00 83 1011.5
20260506150052 23 242 0.0 6.4 0.00 0.00 0.00 85 1011.4
20260506145538 23 305 0.0 6.4 0.00 0.00 0.00 85 1011.4
20260506145037 23 0 0.0 6.4 0.00 0.00 0.00 86 1011.3
20260506144555 23 0 1.6 6.4 0.00 0.00 0.00 87 1011.1
20260506144037 23 288 1.6 6.4 0.00 0.00 0.00 87 1011.1
20260506143537 23 322 1.6 8.0 0.00 0.00 0.00 87 1011.3
20260506143051 23 328 0.0 8.0 0.00 0.00 0.00 87 1011.2
20260506142538 23 0 1.6 11.3 0.00 0.00 0.00 88 1011.0
20260506142035 23 318 3.2 11.3 0.00 0.00 0.00 88 1010.7
20260506141549 23 290 3.2 11.3 0.00 0.00 0.00 89 1010.6
20260506141035 22 298 3.2 8.0 0.00 0.00 0.00 89 1010.8
20260506140537 22 292 1.6 6.4 0.00 0.00 0.00 89 1011.3
20260506140058 22 205 1.6 4.8 0.00 0.00 0.00 89 1011.3
20260506135534 22 244 0.0 4.8 0.00 0.00 0.00 89 1011.3
20260506135035 22 228 0.0 6.4 0.00 0.00 0.00 89 1011.2
20260506134552 22 254 0.0 6.4 0.00 0.00 0.00 89 1010.7
20260506134035 22 294 1.6 6.4 0.00 0.00 0.00 89 1010.2
20260506133535 22 312 0.0 6.4 0.00 0.00 0.00 89 1010.2
20260506133049 22 0 1.6 6.4 0.00 0.00 0.00 89 1010.2
20260506132534 22 332 1.6 6.4 0.00 0.00 0.00 89 1010.2
20260506132037 22 295 0.0 12.9 0.00 0.00 0.00 89 1010.3
20260506131545 22 292 1.6 12.9 0.00 0.00 0.00 89 1010.3
20260506131035 22 295 3.2 12.9 0.00 0.00 0.00 89 1010.2
20260506130537 22 284 1.6 6.4 0.00 0.00 0.00 89 1010.2
20260506130053 22 269 1.6 6.4 0.00 0.00 0.00 89 1010.1
20260506125537 22 0 1.6 6.4 0.00 0.00 0.00 90 1010.0
20260506125039 22 310 1.6 6.4 0.00 0.00 0.00 90 1009.8
20260506124541 22 297 1.6 6.4 0.00 0.00 0.00 90 1009.8
20260506124036 22 0 1.6 4.8 0.00 0.00 0.00 90 1009.7
20260506123537 22 312 1.6 4.8 0.00 0.00 0.00 90 1009.8
20260506123049 22 304 1.6 4.8 0.00 0.00 0.00 90 1009.8
20260506122535 22 287 0.0 4.8 0.00 0.00 0.00 90 1009.8
20260506122036 22 286 0.0 3.2 0.00 0.00 0.00 89 1009.8
20260506121550 22 313 0.0 4.8 0.00 0.00 0.00 89 1009.9
20260506121034 22 0 0.0 4.8 0.00 0.00 0.00 89 1010.0
20260506120537 22 320 0.0 3.2 0.00 0.00 0.00 89 1010.0
20260506120049 22 0 0.0 3.2 0.00 0.00 0.00 89 1009.9
20260506115537 22 0 0.0 3.2 0.00 0.00 0.00 89 1009.9
20260506115034 22 320 0.0 3.2 0.00 0.00 0.00 89 1009.8
20260506114556 22 0 0.0 3.2 0.00 0.00 0.00 89 1009.7
20260506114037 22 0 0.0 3.2 0.00 0.00 0.00 89 1009.7
20260506113535 22 0 0.0 1.6 0.00 0.00 0.00 89 1009.6
20260506113047 22 0 0.0 1.6 0.00 0.00 0.00 89 1009.7
20260506112535 22 0 0.0 0.0 0.00 0.00 0.00 89 1009.8
20260506112035 22 0 0.0 0.0 0.00 0.00 0.00 89 1009.7
20260506111551 22 0 0.0 0.0 0.00 0.00 0.00 89 1009.7
20260506111037 22 0 0.0 1.6 0.00 0.00 0.00 89 1009.6
20260506110536 22 0 0.0 1.6 0.00 0.00 0.00 88 1009.6
20260506110046 22 0 0.0 1.6 0.00 0.00 0.00 88 1009.7
20260506105536 22 0 0.0 4.8 0.00 0.00 0.00 88 1009.6
20260506105038 22 0 0.0 4.8 0.00 0.00 0.00 88 1009.6
20260506104554 22 0 0.0 6.4 0.00 0.00 0.00 88 1009.5
20260506104039 22 0 0.0 11.3 0.00 0.00 0.00 88 1009.4
20260506103538 22 0 0.0 11.3 0.00 0.00 0.00 88 1009.4
20260506103044 22 324 0.0 8.0 0.00 0.00 0.00 88 1009.3
20260506102630 22 310 0.0 8.0 0.00 0.00 0.00 88 1009.2
20260506102035 22 352 0.0 6.4 0.00 0.00 0.00 88 1009.1
20260506101552 22 0 0.0 8.0 0.00 0.00 0.00 88 1009.0
20260506101039 22 32 0.0 8.0 0.00 0.00 0.00 88 1009.0
20260506100536 22 0 0.0 6.4 0.00 0.00 0.00 88 1009.0
20260506100051 22 0 0.0 6.4 0.00 0.00 0.00 88 1009.0
20260506095537 22 329 1.6 6.4 0.00 0.00 0.00 88 1009.0
20260506095037 22 332 0.0 8.0 0.00 0.00 0.00 87 1009.1
20260506094551 22 0 1.6 8.0 0.00 0.00 0.00 87 1009.0
20260506094037 22 323 1.6 12.9 0.00 0.00 0.00 87 1008.8
20260506093536 22 334 3.2 12.9 0.00 0.00 0.00 87 1008.9
20260506093048 22 346 1.6 12.9 0.00 0.00 0.00 87 1008.8
20260506092535 22 333 1.6 12.9 0.00 0.00 0.00 87 1008.7
20260506092036 22 327 1.6 11.3 0.00 0.00 0.00 87 1008.7
20260506091545 22 333 1.6 11.3 0.00 0.00 0.00 87 1008.6
20260506091037 22 331 3.2 12.9 0.00 0.00 0.00 87 1008.4
20260506090537 22 331 3.2 12.9 0.00 0.00 0.00 87 1008.6
20260506090044 22 327 1.6 12.9 0.00 0.00 0.00 88 1008.4
20260506085536 22 333 1.6 12.9 0.00 0.00 0.00 88 1008.3
20260506085036 22 345 4.8 12.9 0.00 0.00 0.00 88 1008.3
20260506084553 22 9 3.2 12.9 0.00 0.00 0.00 88 1008.4
20260506084038 22 341 3.2 12.9 0.00 0.00 0.00 88 1008.3
20260506083535 22 0 1.6 9.7 0.00 0.00 0.00 88 1008.4
20260506083052 22 348 3.2 9.7 0.00 0.00 0.00 88 1008.4
20260506082537 22 311 3.2 12.9 0.00 0.00 0.00 88 1008.5
20260506082037 22 325 4.8 12.9 0.00 0.00 0.00 88 1008.4
20260506081545 22 296 1.6 12.9 0.00 0.00 0.00 88 1008.5
20260506081039 22 333 3.2 12.9 0.00 0.00 0.00 88 1008.5
20260506080538 22 342 3.2 12.9 0.00 0.00 0.00 88 1008.6
20260506073048 22 339 3.2 12.9 0.00 0.00 0.00 87 1008.9
20260506072537 22 5 4.8 12.9 0.00 0.00 0.00 87 1009.2
20260506072037 22 15 3.2 14.5 0.00 0.00 0.00 87 1009.0
20260506071542 22 349 4.8 14.5 0.00 0.00 0.00 87 1009.0
20260506071037 22 294 4.8 16.1 0.00 0.00 0.00 87 1009.0
20260506070538 22 309 4.8 20.9 0.00 0.00 0.00 87 1009.1
20260506062036 23 313 6.4 19.3 0.00 0.00 0.00 86 1009.3
20260506061555 23 316 3.2 19.3 0.00 0.00 0.00 86 1009.0
20260506061038 23 25 3.2 12.9 0.00 0.00 0.00 86 1009.1
20260506060537 23 308 3.2 12.9 0.00 0.00 0.00 86 1009.1
20260506051038 23 329 4.8 16.1 0.00 0.00 0.00 86 1009.3
20260506050534 23 331 4.8 16.1 0.00 0.00 0.00 86 1009.3
20260506045040 23 338 1.6 16.1 0.00 0.00 0.00 86 1009.4
20260506044557 23 341 3.2 16.1 0.00 0.00 0.00 86 1009.3
20260506044036 23 322 4.8 16.1 0.00 0.00 0.00 86 1009.2
20260506043535 23 324 6.4 17.7 0.00 0.00 0.00 86 1009.1
20260506043044 23 345 6.4 17.7 0.00 0.00 0.00 86 1009.2
20260506042535 23 340 4.8 12.9 0.00 0.00 0.00 86 1009.2
20260506042036 23 335 3.2 14.5 0.00 0.00 0.00 86 1009.2
20260506041542 23 317 4.8 14.5 0.00 0.00 0.00 86 1009.0
20260506041034 23 309 4.8 14.5 0.00 0.00 0.00 86 1008.8
20260506040535 23 281 3.2 12.9 0.00 0.00 0.00 86 1008.8
20260506040042 23 352 3.2 9.7 0.00 0.00 0.00 86 1008.8
20260506035537 23 327 3.2 9.7 0.00 0.00 0.00 86 1008.8
20260506035035 23 309 1.6 8.0 0.00 0.00 0.00 86 1008.6
20260506034547 23 309 3.2 9.7 0.00 0.00 0.00 86 1008.5
20260506034037 23 327 3.2 9.7 0.00 0.00 0.00 86 1008.5
20260506033537 23 315 1.6 8.0 0.00 0.00 0.00 86 1008.5
20260506033052 23 329 1.6 8.0 0.00 0.00 0.00 86 1008.6
20260506032535 23 0 1.6 6.4 0.00 0.00 0.00 85 1008.6
20260506032035 23 326 1.6 6.4 0.00 0.00 0.00 85 1008.5
20260506031544 23 311 1.6 6.4 0.00 0.00 0.00 85 1008.3
20260506031035 23 330 1.6 8.0 0.00 0.00 0.00 85 1008.3
20260506030539 23 329 1.6 8.0 0.00 0.00 0.00 84 1008.3
20260506030044 23 325 3.2 9.7 0.00 0.00 0.00 84 1008.3
20260506025535 23 311 3.2 9.7 0.00 0.00 0.00 84 1008.2
20260506025038 23 329 1.6 8.0 0.00 0.00 0.00 83 1008.2
20260506024552 23 318 3.2 9.7 0.00 0.00 0.00 83 1008.2
20260506024036 23 327 3.2 11.3 0.00 0.00 0.00 83 1008.2
20260506023536 23 313 3.2 11.3 0.00 0.00 0.00 83 1008.0
20260506023058 23 323 1.6 8.0 0.00 0.00 0.00 83 1008.1
20260506022537 23 319 1.6 6.4 0.00 0.00 0.00 82 1007.8
20260506022034 23 0 1.6 4.8 0.00 0.00 0.00 82 1007.8
20260506021555 23 0 0.0 6.4 0.00 0.00 0.00 82 1007.7
20260506021041 24 0 1.6 6.4 0.00 0.00 0.00 82 1007.6
20260506020539 24 318 1.6 8.0 0.00 0.00 0.00 81 1007.4
20260506020048 24 319 1.6 8.0 0.00 0.00 0.00 81 1007.4
20260506015537 24 304 1.6 8.0 0.00 0.00 0.00 81 1007.2
20260506015035 24 0 1.6 8.0 0.00 0.00 0.00 80 1007.1
20260506014546 24 337 1.6 8.0 0.00 0.00 0.00 80 1007.1
20260506014037 25 331 3.2 8.0 0.00 0.00 0.00 80 1007.1
20260506013537 25 327 1.6 8.0 0.00 0.00 0.00 79 1007.0
20260506013044 25 315 3.2 9.7 0.00 0.00 0.00 79 1006.9
20260506012535 25 317 3.2 11.3 0.00 0.00 0.00 78 1006.9
20260506012039 25 319 3.2 11.3 0.00 0.00 0.00 78 1006.8
20260506011548 25 313 1.6 11.3 0.00 0.00 0.00 77 1006.9
20260506011036 25 0 0.0 6.4 0.00 0.00 0.00 77 1006.9
20260506010537 26 0 0.0 4.8 0.00 0.00 0.00 76 1007.0
20260506010107 26 311 1.6 4.8 0.00 0.00 0.00 76 1007.0
20260506005537 26 0 0.0 6.4 0.00 0.00 0.00 76 1007.0
20260506005037 26 325 1.6 6.4 0.00 0.00 0.00 75 1007.0
20260506004550 26 0 1.6 6.4 0.00 0.00 0.00 75 1007.0